| time (UTC) | temp F | wind direction | speed knots | gust knots | rain 1hr in | rain 24hr in | rain mn in | humidity % | barometer mb |
| 20260903010659 | 84 | 208 | 3.5 | 5.2 | 0.00 | 0.00 | 0.00 | 77 | 1015.4 |
| 20260903010159 | 84 | 204 | 3.5 | 5.2 | 0.00 | 0.00 | 0.00 | 76 | 1015.4 |
| 20260903005658 | 85 | 210 | 2.6 | 4.3 | 0.00 | 0.00 | 0.00 | 76 | 1015.3 |
| 20260903005153 | 85 | 193 | 2.6 | 4.3 | 0.00 | 0.00 | 0.00 | 76 | 1015.3 |
| 20260903004649 | 85 | 214 | 4.3 | 5.2 | 0.00 | 0.00 | 0.00 | 75 | 1015.3 |
| 20260903004143 | 85 | 198 | 2.6 | 3.5 | 0.00 | 0.00 | 0.00 | 76 | 1015.2 |
| 20260903003639 | 85 | 211 | 2.6 | 3.5 | 0.00 | 0.00 | 0.00 | 76 | 1015.1 |
| 20260903003134 | 85 | 195 | 2.6 | 6.1 | 0.00 | 0.00 | 0.00 | 75 | 1015.1 |
| 20260903002630 | 85 | 203 | 1.7 | 5.2 | 0.00 | 0.00 | 0.00 | 75 | 1015.3 |
| 20260903002124 | 86 | 199 | 2.6 | 6.1 | 0.00 | 0.00 | 0.00 | 75 | 1015.1 |
| 20260903001619 | 86 | 211 | 3.5 | 4.3 | 0.00 | 0.00 | 0.00 | 75 | 1015.2 |
| 20260903001119 | 86 | 210 | 3.5 | 7.8 | 0.00 | 0.00 | 0.00 | 74 | 1015.1 |
| 20260903000615 | 86 | 182 | 2.6 | 4.3 | 0.00 | 0.00 | 0.00 | 75 | 1015.1 |
| 20260903000114 | 86 | 185 | 3.5 | 5.2 | 0.00 | 0.00 | 0.00 | 74 | 1015.2 |
| 20260902235613 | 87 | 195 | 5.2 | 5.2 | 0.00 | 0.00 | 0.00 | 73 | 1015.2 |
| 20260902235108 | 87 | 195 | 5.2 | 5.2 | 0.00 | 0.00 | 0.00 | 72 | 1015.5 |
| 20260902234602 | 88 | 205 | 2.6 | 7.0 | 0.00 | 0.00 | 0.00 | 71 | 1015.4 |
| 20260902234101 | 88 | 241 | 0.0 | 4.3 | 0.00 | 0.00 | 0.00 | 71 | 1015.4 |
| 20260902233556 | 88 | 263 | 0.9 | 4.3 | 0.00 | 0.00 | 0.00 | 70 | 1015.4 |
| 20260902233056 | 89 | 217 | 5.2 | 5.2 | 0.00 | 0.00 | 0.00 | 69 | 1015.5 |
| 20260902232550 | 89 | 254 | 1.7 | 6.1 | 0.00 | 0.00 | 0.00 | 68 | 1015.5 |
| 20260902232049 | 89 | 228 | 3.5 | 9.6 | 0.00 | 0.00 | 0.00 | 68 | 1015.5 |
| 20260902231544 | 90 | 224 | 4.3 | 7.8 | 0.00 | 0.00 | 0.00 | 67 | 1015.7 |
| 20260902231039 | 90 | 211 | 2.6 | 9.6 | 0.00 | 0.00 | 0.00 | 66 | 1015.5 |
| 20260902230538 | 90 | 227 | 6.1 | 8.7 | 0.00 | 0.00 | 0.00 | 65 | 1015.3 |
| 20260902230037 | 90 | 199 | 0.9 | 7.8 | 0.00 | 0.00 | 0.00 | 66 | 1015.3 |
| 20260902225533 | 91 | 236 | 3.5 | 7.8 | 0.00 | 0.00 | 0.00 | 65 | 1015.4 |
| 20260902225032 | 91 | 230 | 5.2 | 7.8 | 0.00 | 0.00 | 0.00 | 64 | 1015.3 |
| 20260902224531 | 91 | 232 | 2.6 | 7.0 | 0.00 | 0.00 | 0.00 | 63 | 1015.3 |
| 20260902224027 | 91 | 238 | 6.1 | 7.0 | 0.00 | 0.00 | 0.00 | 62 | 1015.5 |
| 20260902223524 | 91 | 242 | 4.3 | 11.3 | 0.00 | 0.00 | 0.00 | 62 | 1015.5 |
| 20260902223022 | 92 | 266 | 3.5 | 4.3 | 0.00 | 0.00 | 0.00 | 62 | 1015.4 |
| 20260902222521 | 92 | 210 | 2.6 | 7.0 | 0.00 | 0.00 | 0.00 | 62 | 1015.5 |
| 20260902222021 | 92 | 220 | 5.2 | 7.8 | 0.00 | 0.00 | 0.00 | 63 | 1015.5 |
| 20260902221521 | 92 | 251 | 2.6 | 10.4 | 0.00 | 0.00 | 0.00 | 63 | 1015.5 |
| 20260902221016 | 92 | 223 | 3.5 | 8.7 | 0.00 | 0.00 | 0.00 | 62 | 1015.5 |
| 20260902220511 | 92 | 241 | 2.6 | 5.2 | 0.00 | 0.00 | 0.00 | 63 | 1015.5 |
| 20260902220005 | 92 | 276 | 2.6 | 5.2 | 0.00 | 0.00 | 0.00 | 61 | 1015.4 |
| 20260902215501 | 93 | 266 | 0.9 | 4.3 | 0.00 | 0.00 | 0.00 | 61 | 1015.5 |
| 20260902214957 | 92 | 206 | 2.6 | 6.1 | 0.00 | 0.00 | 0.00 | 61 | 1015.5 |
| 20260902214456 | 93 | 284 | 5.2 | 9.6 | 0.00 | 0.00 | 0.00 | 60 | 1015.3 |
| 20260902213955 | 93 | 217 | 4.3 | 8.7 | 0.00 | 0.00 | 0.00 | 61 | 1015.3 |
| 20260902213452 | 93 | 223 | 2.6 | 8.7 | 0.00 | 0.00 | 0.00 | 60 | 1015.3 |
| 20260902212950 | 93 | 273 | 3.5 | 11.3 | 0.00 | 0.00 | 0.00 | 58 | 1015.5 |
| 20260902212447 | 93 | 286 | 7.0 | 10.4 | 0.00 | 0.00 | 0.00 | 56 | 1015.5 |
| 20260902211942 | 93 | 252 | 2.6 | 7.8 | 0.00 | 0.00 | 0.00 | 59 | 1015.3 |
| 20260902211438 | 93 | 219 | 9.6 | 10.4 | 0.00 | 0.00 | 0.00 | 59 | 1015.5 |
| 20260902210933 | 93 | 247 | 3.5 | 10.4 | 0.00 | 0.00 | 0.00 | 59 | 1015.4 |
| 20260902210428 | 93 | 245 | 1.7 | 11.3 | 0.00 | 0.00 | 0.00 | 59 | 1015.8 |
| 20260902205926 | 93 | 202 | 4.3 | 4.3 | 0.00 | 0.00 | 0.00 | 60 | 1015.4 |
| 20260902205422 | 93 | 278 | 8.7 | 8.7 | 0.00 | 0.00 | 0.00 | 59 | 1015.5 |
| 20260902204917 | 93 | 242 | 1.7 | 13.0 | 0.00 | 0.00 | 0.00 | 58 | 1015.5 |
| 20260902204417 | 93 | 199 | 8.7 | 9.6 | 0.00 | 0.00 | 0.00 | 57 | 1015.8 |
| 20260902203913 | 93 | 277 | 7.0 | 8.7 | 0.00 | 0.00 | 0.00 | 57 | 1015.8 |
| 20260902203408 | 93 | 212 | 2.6 | 7.0 | 0.00 | 0.00 | 0.00 | 58 | 1015.9 |
| 20260902202907 | 93 | 237 | 5.2 | 7.8 | 0.00 | 0.00 | 0.00 | 57 | 1015.9 |
| 20260902202403 | 93 | 235 | 4.3 | 10.4 | 0.00 | 0.00 | 0.00 | 56 | 1016.0 |
| 20260902201859 | 92 | 225 | 11.3 | 14.8 | 0.00 | 0.00 | 0.00 | 56 | 1016.1 |
| 20260902201359 | 92 | 179 | 5.2 | 13.0 | 0.00 | 0.00 | 0.00 | 60 | 1015.9 |
| 20260902200854 | 92 | 249 | 3.5 | 10.4 | 0.00 | 0.00 | 0.00 | 61 | 1015.9 |
| 20260902200355 | 92 | 222 | 8.7 | 13.9 | 0.00 | 0.00 | 0.00 | 58 | 1016.0 |
| 20260902195850 | 92 | 204 | 8.7 | 13.9 | 0.00 | 0.00 | 0.00 | 58 | 1016.0 |
| 20260902195350 | 92 | 185 | 6.1 | 13.9 | 0.00 | 0.00 | 0.00 | 59 | 1016.2 |
| 20260902194845 | 92 | 201 | 11.3 | 15.6 | 0.00 | 0.00 | 0.00 | 56 | 1016.1 |
| 20260902194345 | 92 | 193 | 9.6 | 9.6 | 0.00 | 0.00 | 0.00 | 58 | 1016.0 |
| 20260902193840 | 92 | 201 | 7.8 | 12.2 | 0.00 | 0.00 | 0.00 | 58 | 1016.2 |
| 20260902193336 | 92 | 254 | 7.8 | 14.8 | 0.00 | 0.00 | 0.00 | 59 | 1016.2 |
| 20260902192835 | 92 | 215 | 9.6 | 12.2 | 0.00 | 0.00 | 0.00 | 59 | 1016.3 |
| 20260902192334 | 92 | 181 | 5.2 | 9.6 | 0.00 | 0.00 | 0.00 | 59 | 1016.4 |
| 20260902191833 | 92 | 236 | 5.2 | 12.2 | 0.00 | 0.00 | 0.00 | 57 | 1016.2 |
| 20260902191329 | 92 | 208 | 9.6 | 12.2 | 0.00 | 0.00 | 0.00 | 60 | 1016.4 |
| 20260902190824 | 92 | 180 | 6.1 | 12.2 | 0.00 | 0.00 | 0.00 | 58 | 1016.6 |
| 20260902190323 | 92 | 157 | 9.6 | 11.3 | 0.00 | 0.00 | 0.00 | 58 | 1016.5 |
| 20260902185820 | 92 | 194 | 2.6 | 8.7 | 0.00 | 0.00 | 0.00 | 60 | 1016.5 |
| 20260902185317 | 92 | 192 | 6.1 | 12.2 | 0.00 | 0.00 | 0.00 | 59 | 1016.4 |
| 20260902184811 | 92 | 227 | 8.7 | 10.4 | 0.00 | 0.00 | 0.00 | 61 | 1016.4 |
| 20260902184306 | 92 | 185 | 12.2 | 13.0 | 0.00 | 0.00 | 0.00 | 58 | 1016.4 |
| 20260902183801 | 92 | 198 | 7.8 | 9.6 | 0.00 | 0.00 | 0.00 | 59 | 1016.4 |
| 20260902183258 | 92 | 184 | 5.2 | 10.4 | 0.00 | 0.00 | 0.00 | 59 | 1016.5 |
| 20260902182753 | 91 | 190 | 5.2 | 9.6 | 0.00 | 0.00 | 0.00 | 59 | 1016.5 |
| 20260902182250 | 92 | 218 | 7.8 | 9.6 | 0.00 | 0.00 | 0.00 | 61 | 1016.7 |
| 20260902181746 | 92 | 217 | 5.2 | 8.7 | 0.00 | 0.00 | 0.00 | 59 | 1016.7 |
| 20260902181245 | 92 | 233 | 5.2 | 9.6 | 0.00 | 0.00 | 0.00 | 60 | 1016.8 |
| 20260902180740 | 91 | 182 | 4.3 | 7.0 | 0.00 | 0.00 | 0.00 | 60 | 1016.8 |
| 20260902180236 | 92 | 188 | 7.8 | 8.7 | 0.00 | 0.00 | 0.00 | 59 | 1016.8 |
| 20260902175731 | 91 | 221 | 9.6 | 10.4 | 0.00 | 0.00 | 0.00 | 58 | 1017.0 |
| 20260902175226 | 91 | 186 | 7.0 | 11.3 | 0.00 | 0.00 | 0.00 | 60 | 1017.1 |
| 20260902174722 | 91 | 227 | 8.7 | 11.3 | 0.00 | 0.00 | 0.00 | 57 | 1017.0 |
| 20260902174218 | 91 | 228 | 5.2 | 8.7 | 0.00 | 0.00 | 0.00 | 60 | 1017.0 |
| 20260902173714 | 92 | 195 | 7.8 | 9.6 | 0.00 | 0.00 | 0.00 | 60 | 1017.3 |
| 20260902173208 | 92 | 181 | 4.3 | 8.7 | 0.00 | 0.00 | 0.00 | 60 | 1017.2 |
| 20260902172708 | 91 | 234 | 3.5 | 7.0 | 0.00 | 0.00 | 0.00 | 59 | 1017.2 |
| 20260902172207 | 91 | 313 | 2.6 | 6.1 | 0.00 | 0.00 | 0.00 | 59 | 1017.4 |
| 20260902171703 | 90 | 183 | 5.2 | 10.4 | 0.00 | 0.00 | 0.00 | 59 | 1017.3 |
| 20260902171158 | 91 | 209 | 6.1 | 9.6 | 0.00 | 0.00 | 0.00 | 62 | 1017.4 |
| 20260902170654 | 90 | 224 | 2.6 | 9.6 | 0.00 | 0.00 | 0.00 | 64 | 1017.3 |
| 20260902170149 | 91 | 230 | 6.1 | 7.8 | 0.00 | 0.00 | 0.00 | 60 | 1017.3 |
| 20260902165645 | 91 | 267 | 0.9 | 4.3 | 0.00 | 0.00 | 0.00 | 62 | 1017.4 |
| 20260902165144 | 90 | 236 | 5.2 | 7.0 | 0.00 | 0.00 | 0.00 | 63 | 1017.4 |
| 20260902164639 | 89 | 258 | 3.5 | 9.6 | 0.00 | 0.00 | 0.00 | 63 | 1017.6 |
| 20260902164138 | 89 | 206 | 7.0 | 11.3 | 0.00 | 0.00 | 0.00 | 62 | 1017.6 |
| 20260902163633 | 90 | 217 | 5.2 | 7.8 | 0.00 | 0.00 | 0.00 | 65 | 1017.6 |
| 20260902163133 | 89 | 237 | 1.7 | 7.8 | 0.00 | 0.00 | 0.00 | 65 | 1017.4 |
| 20260902162631 | 90 | 232 | 5.2 | 7.0 | 0.00 | 0.00 | 0.00 | 65 | 1017.6 |
| 20260902162126 | 90 | 290 | 1.7 | 6.1 | 0.00 | 0.00 | 0.00 | 65 | 1017.7 |
| 20260902161621 | 90 | 231 | 4.3 | 6.1 | 0.00 | 0.00 | 0.00 | 66 | 1017.7 |
| 20260902161118 | 89 | 238 | 5.2 | 7.0 | 0.00 | 0.00 | 0.00 | 66 | 1018.1 |
| 20260902160614 | 88 | 240 | 3.5 | 10.4 | 0.00 | 0.00 | 0.00 | 65 | 1017.7 |
| 20260902160109 | 88 | 217 | 2.6 | 8.7 | 0.00 | 0.00 | 0.00 | 66 | 1017.8 |
| 20260902155607 | 88 | 202 | 7.0 | 9.6 | 0.00 | 0.00 | 0.00 | 67 | 1017.8 |
| 20260902155106 | 88 | 236 | 2.6 | 9.6 | 0.00 | 0.00 | 0.00 | 67 | 1017.9 |
| 20260902154601 | 88 | 214 | 7.0 | 9.6 | 0.00 | 0.00 | 0.00 | 65 | 1017.8 |
| 20260902154056 | 88 | 218 | 3.5 | 7.8 | 0.00 | 0.00 | 0.00 | 67 | 1018.0 |
| 20260902153554 | 88 | 239 | 6.1 | 8.7 | 0.00 | 0.00 | 0.00 | 66 | 1018.2 |
| 20260902153050 | 87 | 256 | 2.6 | 7.8 | 0.00 | 0.00 | 0.00 | 68 | 1017.9 |
| 20260902152547 | 87 | 218 | 3.5 | 6.1 | 0.00 | 0.00 | 0.00 | 68 | 1017.7 |
| 20260902152041 | 87 | 253 | 6.1 | 7.8 | 0.00 | 0.00 | 0.00 | 67 | 1017.8 |
| 20260902151537 | 87 | 246 | 4.3 | 6.1 | 0.00 | 0.00 | 0.00 | 68 | 1017.7 |
| 20260902151036 | 87 | 219 | 7.8 | 8.7 | 0.00 | 0.00 | 0.00 | 67 | 1017.9 |
| 20260902150532 | 86 | 249 | 5.2 | 7.0 | 0.00 | 0.00 | 0.00 | 68 | 1017.8 |
| 20260902150027 | 86 | 237 | 6.1 | 9.6 | 0.00 | 0.00 | 0.00 | 70 | 1017.9 |
| 20260902145523 | 86 | 229 | 4.3 | 7.8 | 0.00 | 0.00 | 0.00 | 69 | 1018.0 |
| 20260902145022 | 86 | 216 | 3.5 | 8.7 | 0.00 | 0.00 | 0.00 | 69 | 1017.8 |
| 20260902144519 | 85 | 288 | 3.5 | 9.6 | 0.00 | 0.00 | 0.00 | 70 | 1017.8 |
| 20260902144019 | 86 | 302 | 2.6 | 6.1 | 0.00 | 0.00 | 0.00 | 71 | 1017.8 |
| 20260902143514 | 85 | 237 | 2.6 | 7.0 | 0.00 | 0.00 | 0.00 | 69 | 1017.7 |
| 20260902143010 | 85 | 247 | 4.3 | 7.8 | 0.00 | 0.00 | 0.00 | 69 | 1017.7 |
| 20260902142505 | 85 | 219 | 6.1 | 10.4 | 0.00 | 0.00 | 0.00 | 69 | 1017.8 |
| 20260902142000 | 84 | 269 | 0.9 | 8.7 | 0.00 | 0.00 | 0.00 | 71 | 1017.7 |
| 20260902141455 | 84 | 242 | 3.5 | 7.0 | 0.00 | 0.00 | 0.00 | 70 | 1017.5 |
| 20260902140955 | 83 | 202 | 1.7 | 9.6 | 0.00 | 0.00 | 0.00 | 71 | 1017.6 |
| 20260902140451 | 84 | 239 | 4.3 | 9.6 | 0.00 | 0.00 | 0.00 | 71 | 1017.6 |
| 20260902135950 | 83 | 251 | 0.9 | 8.7 | 0.00 | 0.00 | 0.00 | 71 | 1017.5 |
| 20260902135446 | 83 | 210 | 6.1 | 7.8 | 0.00 | 0.00 | 0.00 | 71 | 1017.6 |
| 20260902134945 | 83 | 341 | 0.0 | 8.7 | 0.00 | 0.00 | 0.00 | 72 | 1017.7 |
| 20260902134442 | 82 | 222 | 6.1 | 11.3 | 0.00 | 0.00 | 0.00 | 72 | 1017.8 |
| 20260902133941 | 82 | 233 | 5.2 | 7.8 | 0.00 | 0.00 | 0.00 | 72 | 1017.8 |
| 20260902133436 | 82 | 237 | 7.8 | 7.8 | 0.00 | 0.00 | 0.00 | 73 | 1017.8 |
| 20260902132931 | 82 | 248 | 6.1 | 7.0 | 0.00 | 0.00 | 0.00 | 74 | 1017.7 |
| 20260902132426 | 81 | 226 | 4.3 | 7.0 | 0.00 | 0.00 | 0.00 | 76 | 1017.8 |
| 20260902131921 | 81 | 240 | 2.6 | 9.6 | 0.00 | 0.00 | 0.00 | 76 | 1017.9 |
| 20260902131418 | 80 | 259 | 5.2 | 7.8 | 0.00 | 0.00 | 0.00 | 78 | 1018.0 |
| 20260902130917 | 80 | 226 | 5.2 | 8.7 | 0.00 | 0.00 | 0.00 | 78 | 1017.8 |
| 20260902130414 | 80 | 211 | 4.3 | 7.8 | 0.00 | 0.00 | 0.00 | 79 | 1017.8 |
| 20260902125908 | 79 | 229 | 5.2 | 7.0 | 0.00 | 0.00 | 0.00 | 80 | 1017.9 |
| 20260902125405 | 78 | 204 | 5.2 | 5.2 | 0.00 | 0.00 | 0.00 | 82 | 1018.0 |
| 20260902124900 | 78 | 215 | 3.5 | 6.1 | 0.00 | 0.00 | 0.00 | 83 | 1017.9 |
| 20260902124356 | 78 | 214 | 3.5 | 5.2 | 0.00 | 0.00 | 0.00 | 83 | 1017.7 |
| 20260902123851 | 77 | 224 | 5.2 | 7.8 | 0.00 | 0.00 | 0.00 | 84 | 1017.8 |
| 20260902123347 | 77 | 221 | 5.2 | 7.8 | 0.00 | 0.00 | 0.00 | 84 | 1018.0 |
| 20260902122845 | 77 | 226 | 3.5 | 7.0 | 0.00 | 0.00 | 0.00 | 85 | 1017.8 |
| 20260902122342 | 76 | 201 | 2.6 | 6.1 | 0.00 | 0.00 | 0.00 | 86 | 1017.9 |
| 20260902121841 | 76 | 226 | 5.2 | 5.2 | 0.00 | 0.00 | 0.00 | 87 | 1018.0 |
| 20260902121337 | 75 | 206 | 3.5 | 5.2 | 0.00 | 0.00 | 0.00 | 88 | 1018.0 |
| 20260902120832 | 75 | 212 | 2.6 | 5.2 | 0.00 | 0.00 | 0.00 | 89 | 1018.1 |
| 20260902120329 | 75 | 202 | 1.7 | 7.0 | 0.00 | 0.00 | 0.00 | 89 | 1018.0 |
| 20260902115828 | 75 | 224 | 1.7 | 6.1 | 0.00 | 0.00 | 0.00 | 90 | 1018.0 |
| 20260902115325 | 75 | 174 | 1.7 | 4.3 | 0.00 | 0.00 | 0.00 | 90 | 1017.9 |
| 20260902114821 | 74 | 201 | 2.6 | 3.5 | 0.00 | 0.00 | 0.00 | 91 | 1017.9 |
| 20260902114317 | 74 | 217 | 2.6 | 5.2 | 0.00 | 0.00 | 0.00 | 92 | 1017.9 |
| 20260902113816 | 74 | 221 | 1.7 | 2.6 | 0.00 | 0.00 | 0.00 | 92 | 1017.9 |
| 20260902113312 | 73 | 200 | 1.7 | 3.5 | 0.00 | 0.00 | 0.00 | 93 | 1017.8 |
| 20260902112811 | 73 | 226 | 1.7 | 2.6 | 0.00 | 0.00 | 0.00 | 93 | 1017.7 |
| 20260902112308 | 73 | 192 | 0.9 | 1.7 | 0.00 | 0.00 | 0.00 | 93 | 1017.6 |
| 20260902111803 | 73 | 205 | 0.0 | 1.7 | 0.00 | 0.00 | 0.00 | 93 | 1017.8 |
| 20260902111300 | 73 | 207 | 1.7 | 2.6 | 0.00 | 0.00 | 0.00 | 94 | 1017.7 |
| 20260902110755 | 73 | 181 | 0.9 | 1.7 | 0.00 | 0.00 | 0.00 | 94 | 1017.5 |
| 20260902110251 | 73 | 219 | 1.7 | 2.6 | 0.00 | 0.00 | 0.00 | 93 | 1017.6 |
| 20260902105750 | 73 | 234 | 0.0 | 1.7 | 0.00 | 0.00 | 0.00 | 93 | 1017.5 |
| 20260902105246 | 73 | 194 | 0.9 | 2.6 | 0.00 | 0.00 | 0.00 | 94 | 1017.5 |
| 20260902104741 | 73 | 189 | 1.7 | 1.7 | 0.00 | 0.00 | 0.00 | 94 | 1017.5 |
| 20260902104237 | 73 | 202 | 1.7 | 2.6 | 0.00 | 0.00 | 0.00 | 93 | 1017.5 |
| 20260902103736 | 73 | 198 | 2.6 | 2.6 | 0.00 | 0.00 | 0.00 | 93 | 1017.4 |
| 20260902103231 | 73 | 191 | 0.9 | 2.6 | 0.00 | 0.00 | 0.00 | 93 | 1017.4 |
| 20260902102727 | 73 | 219 | 1.7 | 2.6 | 0.00 | 0.00 | 0.00 | 93 | 1017.3 |
| 20260902102224 | 73 | 193 | 0.9 | 1.7 | 0.00 | 0.00 | 0.00 | 93 | 1017.3 |
| 20260902101719 | 73 | 213 | 1.7 | 1.7 | 0.00 | 0.00 | 0.00 | 93 | 1017.3 |
| 20260902101214 | 74 | 207 | 0.9 | 1.7 | 0.00 | 0.00 | 0.00 | 93 | 1017.2 |
| 20260902100713 | 74 | 171 | 1.7 | 1.7 | 0.00 | 0.00 | 0.00 | 93 | 1017.0 |
| 20260902100208 | 74 | 177 | 0.9 | 2.6 | 0.00 | 0.00 | 0.00 | 92 | 1017.2 |
| 20260902095708 | 74 | 215 | 0.9 | 2.6 | 0.00 | 0.00 | 0.00 | 92 | 1017.2 |
| 20260902095202 | 74 | 215 | 1.7 | 1.7 | 0.00 | 0.00 | 0.00 | 92 | 1017.2 |
| 20260902094657 | 74 | 203 | 0.9 | 2.6 | 0.00 | 0.00 | 0.00 | 92 | 1017.1 |
| 20260902094153 | 74 | 216 | 1.7 | 2.6 | 0.00 | 0.00 | 0.00 | 93 | 1016.9 |
| 20260902093652 | 74 | 191 | 1.7 | 3.5 | 0.00 | 0.00 | 0.00 | 93 | 1017.1 |
| 20260902093148 | 74 | 199 | 1.7 | 2.6 | 0.00 | 0.00 | 0.00 | 93 | 1016.9 |
| 20260902092643 | 74 | 216 | 0.9 | 1.7 | 0.00 | 0.00 | 0.00 | 93 | 1017.0 |
| 20260902092143 | 74 | 206 | 0.9 | 1.7 | 0.00 | 0.00 | 0.00 | 93 | 1017.1 |
| 20260902091637 | 74 | 208 | 1.7 | 2.6 | 0.00 | 0.00 | 0.00 | 93 | 1017.1 |
| 20260902091134 | 74 | 214 | 1.7 | 1.7 | 0.00 | 0.00 | 0.00 | 93 | 1017.0 |
| 20260902090630 | 75 | 190 | 0.9 | 1.7 | 0.00 | 0.00 | 0.00 | 92 | 1017.0 |
| 20260902090128 | 75 | 204 | 1.7 | 1.7 | 0.00 | 0.00 | 0.00 | 92 | 1017.0 |
| 20260902085624 | 75 | 203 | 1.7 | 2.6 | 0.00 | 0.00 | 0.00 | 92 | 1016.8 |
| 20260902085119 | 75 | 183 | 1.7 | 3.5 | 0.00 | 0.00 | 0.00 | 92 | 1016.7 |
| 20260902084615 | 75 | 191 | 1.7 | 2.6 | 0.00 | 0.00 | 0.00 | 91 | 1016.8 |
| 20260902084110 | 75 | 205 | 2.6 | 3.5 | 0.00 | 0.00 | 0.00 | 91 | 1016.9 |
| 20260902083606 | 76 | 235 | 1.7 | 2.6 | 0.00 | 0.00 | 0.00 | 91 | 1016.9 |
| 20260902083105 | 76 | 263 | 1.7 | 1.7 | 0.00 | 0.00 | 0.00 | 90 | 1016.9 |
| 20260902082601 | 76 | 183 | 0.0 | 2.6 | 0.00 | 0.00 | 0.00 | 90 | 1017.2 |
| 20260902082057 | 76 | 226 | 1.7 | 1.7 | 0.00 | 0.00 | 0.00 | 89 | 1017.1 |
| 20260902081554 | 77 | 243 | 1.7 | 2.6 | 0.00 | 0.00 | 0.00 | 89 | 1016.9 |
| 20260902081053 | 77 | 258 | 1.7 | 3.5 | 0.00 | 0.00 | 0.00 | 89 | 1017.0 |
| 20260902080553 | 77 | 269 | 1.7 | 3.5 | 0.00 | 0.00 | 0.00 | 89 | 1016.9 |
| 20260902080050 | 77 | 303 | 0.9 | 4.3 | 0.00 | 0.00 | 0.00 | 90 | 1016.9 |
| 20260902075550 | 77 | 192 | 1.7 | 4.3 | 0.00 | 0.00 | 0.00 | 90 | 1016.8 |
| 20260902075046 | 77 | 223 | 1.7 | 5.2 | 0.00 | 0.00 | 0.00 | 90 | 1017.1 |
| 20260902074541 | 77 | 208 | 4.3 | 5.2 | 0.00 | 0.00 | 0.00 | 90 | 1016.9 |
| 20260902074036 | 77 | 206 | 1.7 | 4.3 | 0.00 | 0.00 | 0.00 | 90 | 1016.9 |
| 20260902073531 | 77 | 220 | 2.6 | 3.5 | 0.00 | 0.00 | 0.00 | 90 | 1016.9 |
| 20260902073028 | 77 | 186 | 1.7 | 5.2 | 0.00 | 0.00 | 0.00 | 90 | 1017.0 |
| 20260902072523 | 77 | 239 | 0.0 | 2.6 | 0.00 | 0.00 | 0.00 | 90 | 1016.7 |
| 20260902072020 | 77 | 188 | 1.7 | 4.3 | 0.00 | 0.00 | 0.00 | 90 | 1017.0 |
| 20260902071519 | 77 | 229 | 1.7 | 2.6 | 0.00 | 0.00 | 0.00 | 90 | 1016.9 |
| 20260902071016 | 77 | 183 | 1.7 | 3.5 | 0.00 | 0.00 | 0.00 | 91 | 1016.9 |
| 20260902070511 | 77 | 214 | 0.9 | 2.6 | 0.00 | 0.00 | 0.00 | 91 | 1016.8 |
| 20260902070011 | 76 | 232 | 2.6 | 4.3 | 0.00 | 0.00 | 0.00 | 91 | 1016.8 |
| 20260902065505 | 76 | 190 | 1.7 | 3.5 | 0.00 | 0.00 | 0.00 | 91 | 1016.7 |
| 20260902065000 | 76 | 187 | 1.7 | 3.5 | 0.00 | 0.00 | 0.00 | 91 | 1016.8 |
| 20260902064456 | 76 | 196 | 0.0 | 1.7 | 0.00 | 0.00 | 0.00 | 91 | 1016.8 |
| 20260902063952 | 76 | 199 | 0.0 | 1.7 | 0.00 | 0.00 | 0.00 | 91 | 1016.8 |
| 20260902063451 | 77 | 193 | 0.9 | 1.7 | 0.00 | 0.00 | 0.00 | 90 | 1016.7 |
| 20260902062947 | 77 | 171 | 0.0 | 1.7 | 0.00 | 0.00 | 0.00 | 90 | 1016.8 |
| 20260902062445 | 77 | 200 | 1.7 | 1.7 | 0.00 | 0.00 | 0.00 | 90 | 1016.8 |
| 20260902061940 | 77 | 195 | 0.0 | 0.0 | 0.00 | 0.00 | 0.00 | 89 | 1016.8 |
| 20260902061435 | 77 | 188 | 0.9 | 1.7 | 0.00 | 0.00 | 0.00 | 89 | 1016.9 |
| 20260902060932 | 77 | 187 | 0.9 | 1.7 | 0.00 | 0.00 | 0.00 | 89 | 1017.0 |
| 20260902060427 | 77 | 209 | 1.7 | 1.7 | 0.00 | 0.00 | 0.00 | 88 | 1016.8 |
| 20260902055923 | 78 | 206 | 1.7 | 1.7 | 0.00 | 0.00 | 0.00 | 88 | 1017.1 |
| 20260902055419 | 78 | 180 | 0.9 | 1.7 | 0.00 | 0.00 | 0.00 | 88 | 1017.0 |
| 20260902054914 | 78 | 231 | 0.0 | 1.7 | 0.00 | 0.00 | 0.00 | 87 | 1017.1 |
| 20260902054409 | 78 | 199 | 0.0 | 1.7 | 0.00 | 0.00 | 0.00 | 87 | 1016.9 |
| 20260902053904 | 78 | 199 | 1.7 | 1.7 | 0.00 | 0.00 | 0.00 | 86 | 1017.0 |
| 20260902053400 | 79 | 216 | 0.9 | 1.7 | 0.00 | 0.00 | 0.00 | 86 | 1016.9 |
| 20260902052859 | 79 | 228 | 0.0 | 2.6 | 0.00 | 0.00 | 0.00 | 86 | 1017.0 |
| 20260902052354 | 79 | 227 | 0.9 | 0.9 | 0.00 | 0.00 | 0.00 | 86 | 1016.8 |
| 20260902051849 | 79 | 209 | 1.7 | 2.6 | 0.00 | 0.00 | 0.00 | 86 | 1017.0 |
| 20260902051344 | 79 | 227 | 1.7 | 2.6 | 0.00 | 0.00 | 0.00 | 86 | 1017.1 |
| 20260902050843 | 79 | 277 | 1.7 | 2.6 | 0.00 | 0.00 | 0.00 | 87 | 1017.0 |
| 20260902050342 | 79 | 267 | 1.7 | 3.5 | 0.00 | 0.00 | 0.00 | 87 | 1017.1 |
| 20260902045838 | 79 | 284 | 0.9 | 2.6 | 0.00 | 0.00 | 0.00 | 87 | 1017.0 |
| 20260902045334 | 79 | 241 | 2.6 | 3.5 | 0.00 | 0.00 | 0.00 | 86 | 1016.9 |
| 20260902044830 | 79 | 198 | 2.6 | 3.5 | 0.00 | 0.00 | 0.00 | 86 | 1016.9 |
| 20260902044325 | 80 | 197 | 3.5 | 4.3 | 0.00 | 0.00 | 0.00 | 86 | 1016.7 |
| 20260902043826 | 80 | 222 | 6.1 | 7.0 | 0.00 | 0.00 | 0.00 | 86 | 1016.8 |
| 20260902043321 | 80 | 236 | 1.7 | 4.3 | 0.00 | 0.00 | 0.00 | 86 | 1017.1 |
| 20260902042820 | 79 | 225 | 6.1 | 7.0 | 0.00 | 0.00 | 0.00 | 87 | 1016.9 |
| 20260902042315 | 80 | 217 | 0.0 | 3.5 | 0.00 | 0.00 | 0.00 | 86 | 1016.7 |
| 20260902041810 | 80 | 205 | 1.7 | 4.3 | 0.00 | 0.00 | 0.00 | 86 | 1016.7 |
| 20260902041310 | 80 | 225 | 2.6 | 5.2 | 0.00 | 0.00 | 0.00 | 86 | 1016.8 |
| 20260902040809 | 80 | 210 | 4.3 | 4.3 | 0.00 | 0.00 | 0.00 | 86 | 1016.9 |
| 20260902040305 | 80 | 209 | 2.6 | 3.5 | 0.00 | 0.00 | 0.00 | 86 | 1016.8 |
| 20260902035803 | 80 | 206 | 1.7 | 5.2 | 0.00 | 0.09 | 0.09 | 86 | 1016.8 |
| 20260902035259 | 80 | 194 | 1.7 | 3.5 | 0.00 | 0.09 | 0.09 | 86 | 1016.9 |
| 20260902034757 | 80 | 208 | 3.5 | 4.3 | 0.00 | 0.09 | 0.09 | 86 | 1016.9 |
| 20260902034253 | 80 | 190 | 1.7 | 4.3 | 0.00 | 0.09 | 0.09 | 86 | 1016.8 |
| 20260902033750 | 80 | 189 | 1.7 | 3.5 | 0.00 | 0.09 | 0.09 | 86 | 1016.8 |
| 20260902033246 | 80 | 183 | 2.6 | 3.5 | 0.00 | 0.09 | 0.09 | 86 | 1016.7 |
| 20260902032745 | 80 | 198 | 2.6 | 4.3 | 0.00 | 0.09 | 0.09 | 86 | 1016.8 |
| 20260902032240 | 80 | 195 | 1.7 | 3.5 | 0.00 | 0.09 | 0.09 | 86 | 1016.7 |
| 20260902031740 | 80 | 207 | 1.7 | 2.6 | 0.00 | 0.09 | 0.09 | 86 | 1016.9 |
| 20260902031235 | 80 | 194 | 2.6 | 3.5 | 0.00 | 0.09 | 0.09 | 86 | 1016.9 |
| 20260902030731 | 80 | 203 | 1.7 | 4.3 | 0.00 | 0.09 | 0.09 | 86 | 1016.8 |
| 20260902030231 | 80 | 184 | 1.7 | 3.5 | 0.00 | 0.09 | 0.09 | 86 | 1016.7 |
| 20260902025730 | 80 | 187 | 1.7 | 3.5 | 0.00 | 0.09 | 0.09 | 86 | 1016.8 |
| 20260902025225 | 81 | 216 | 1.7 | 2.6 | 0.00 | 0.09 | 0.09 | 86 | 1016.8 |
| 20260902024721 | 81 | 196 | 1.7 | 2.6 | 0.00 | 0.09 | 0.09 | 86 | 1016.5 |
| 20260902024216 | 81 | 173 | 2.6 | 3.5 | 0.00 | 0.09 | 0.09 | 86 | 1016.7 |
| 20260902023711 | 81 | 204 | 2.6 | 3.5 | 0.00 | 0.09 | 0.09 | 87 | 1016.8 |
| 20260902023207 | 81 | 187 | 1.7 | 2.6 | 0.00 | 0.09 | 0.09 | 87 | 1016.9 |
| 20260902022706 | 81 | 199 | 1.7 | 2.6 | 0.00 | 0.09 | 0.09 | 86 | 1017.0 |
| 20260902022202 | 81 | 220 | 1.7 | 2.6 | 0.00 | 0.09 | 0.09 | 87 | 1017.0 |
| 20260902021658 | 81 | 189 | 1.7 | 2.6 | 0.00 | 0.09 | 0.09 | 87 | 1016.8 |
| 20260902021157 | 81 | 208 | 1.7 | 2.6 | 0.00 | 0.09 | 0.09 | 88 | 1016.8 |
| 20260902020653 | 80 | 199 | 1.7 | 2.6 | 0.00 | 0.09 | 0.09 | 88 | 1016.9 |
| 20260902020149 | 80 | 199 | 1.7 | 2.6 | 0.00 | 0.09 | 0.09 | 88 | 1016.7 |
| 20260902015644 | 80 | 184 | 1.7 | 1.7 | 0.00 | 0.09 | 0.09 | 89 | 1016.8 |
| 20260902015141 | 80 | 200 | 0.9 | 2.6 | 0.00 | 0.09 | 0.09 | 89 | 1016.6 |
| 20260902014636 | 80 | 194 | 0.9 | 1.7 | 0.00 | 0.09 | 0.09 | 89 | 1016.7 |
| 20260902014132 | 80 | 191 | 0.9 | 1.7 | 0.00 | 0.09 | 0.09 | 89 | 1016.7 |
| 20260902013631 | 80 | 154 | 0.0 | 0.9 | 0.00 | 0.09 | 0.09 | 89 | 1016.8 |
| 20260902013127 | 80 | 242 | 0.0 | 0.0 | 0.00 | 0.09 | 0.09 | 89 | 1016.9 |
| 20260902012622 | 80 | 75 | 0.0 | 0.0 | 0.00 | 0.09 | 0.09 | 88 | 1016.9 |
| 20260902012118 | 81 | 230 | 0.0 | 0.0 | 0.00 | 0.09 | 0.09 | 88 | 1016.9 |
| 20260902011614 | 81 | 205 | 0.0 | 0.0 | 0.00 | 0.09 | 0.09 | 88 | 1016.6 |